Location: Fazenda Monte Alegre
(4.8500°S, 38.0333°W)
Time: 16:25:04
(UTC+00:00)

Cosmos 2084 Rocket - Pass Details

Date: 24 September 2020
Orbit: 545 x 635 km, 62.8° (Epoch: 25 October)

Event Time Altitude Azimuth Distance (km) Brightness Sun altitude
Rises 21:44:32 0° 338° (NNW) 2,905 7.3 -20.0°
Reaches altitude 10° 21:46:48 10° 339° (NNW) 2,006 6.4 -20.6°
Maximum altitude 21:51:22 83° 66° (ENE) 643 3.4 -21.7°
Enters shadow 21:52:57 41° 150° (SSE) 918 4.2 -22.1°
